1484200800.24,10847,5.38,71720.8,-13.23,-14.11,-14.15,0,*6D
1484200801.47,10848,5.38,71720.8,-13.23,-14.23,-14.15,0,*63
1484200802.7,10849,5.44,71730.3,-13.23,-14.15,-14.15,0,*67
1484200803.95,10850,5.38,71728.3,-13.21,-14.15,-14.23,0,*68
1484200805.18,10851,5.44,71730.3,-13.23,-14.15,-14.23,0,*6B
1484200806.39,10852,5.38,71726.0,-13.23,-14.37,-14.37,0,*6D
1484200807.69,10853,5.44,71732.5,-13.21,-14.43,-14.51,0,*6D
1484200808.96,10854,5.38,71724.0,-13.23,-14.51,-14.51,0,*6B
1484200810.22,10855,5.38,71722.0,-13.23,-14.43,-14.43,0,*6A
1484200811.47,10856,5.38,71720.8,-13.23,-14.43,-14.37,0,*6A
1484200812.69,10857,5.38,71716.8,-13.23,-14.29,-14.37,0,*67
1484200813.91,10858,5.38,71712.3,-13.23,-14.37,-14.29,0,*68
1484200815.12,10859,5.38,71708.8,-13.23,-14.29,-14.23,0,*6C
1484200816.34,10860,5.38,71708.5,-13.23,-14.29,-14.15,0,*63
1484200817.56,10861,5.44,71712.0,-13.23,-14.29,-14.29,0,*6D
1484200818.78,10862,5.38,71710.0,-13.23,-14.29,-14.29,0,*6E
1484200820.0,10863,5.38,71710.0,-13.23,-14.37,-14.29,0,*60
1484200821.22,10864,5.38,71706.8,-13.23,-14.29,-14.29,0,*68
1484200822.46,10865,5.38,71706.0,-13.21,-14.29,-14.29,0,*6B
1484200823.7,10866,5.44,71704.0,-13.21,-14.37,-14.29,0,*67
1484200824.92,10867,5.38,71704.3,-13.23,-14.29,-14.23,0,*61
1484200826.14,10868,5.38,71704.0,-13.23,-14.29,-14.23,0,*6E
1484200827.38,10869,5.38,71706.0,-13.21,-14.37,-14.23,0,*62
1484200828.61,10870,5.38,71708.3,-13.23,-14.23,-14.15,0,*68
1484200829.86,10871,5.44,71712.8,-13.21,-14.23,-14.23,0,*6E
1484200831.09,10872,5.38,71710.8,-13.23,-14.15,-14.15,0,*6F
1484200832.33,10873,5.38,71710.8,-13.21,-14.15,-14.11,0,*68
1484200833.55,10874,5.38,71710.5,-13.23,-14.15,-14.11,0,*6D
1484200834.78,10875,5.38,71710.3,-13.23,-14.15,-14.15,0,*68
1484200836.03,10876,5.38,71708.8,-13.21,-14.15,-14.15,0,*69
1484200837.28,10877,5.44,71716.3,-13.21,-14.15,-14.15,0,*68
1484200838.51,10878,5.38,71716.3,-13.23,-14.15,-14.15,0,*65
1484200839.77,10879,5.38,71718.0,-13.21,-14.15,-14.15,0,*66
1484200841.01,10880,5.38,71720.0,-13.21,-14.23,-14.23,0,*60
1484200842.26,10881,5.38,71720.8,-13.21,-14.37,-14.37,0,*61
1484200843.5,10882,5.44,71722.8,-13.21,-14.29,-14.37,0,*6D
1484200844.74,10883,5.38,71722.5,-13.21,-14.37,-14.37,0,*63
1484200845.98,10884,5.38,71724.8,-13.21,-14.29,-14.29,0,*64
1484200847.2,10885,5.44,71728.3,-13.23,-14.29,-14.29,0,*67
1484200848.42,10886,5.38,71728.8,-13.23,-14.29,-14.23,0,*6E
1484200849.66,10887,5.44,71734.3,-13.21,-14.29,-14.23,0,*6D
1484200850.9,10888,5.38,71732.3,-13.21,-14.37,-14.29,0,*67
1484200852.12,10889,5.38,71732.5,-13.23,-14.29,-14.37,0,*64
1484200853.36,10890,5.38,71736.0,-13.21,-14.37,-14.29,0,*6E
1484200854.6,10891,5.38,71738.3,-13.21,-14.29,-14.29,0,*60
1484200855.82,10892,5.44,71738.3,-13.23,-14.29,-14.23,0,*6B
1484200857.04,10893,5.44,71740.8,-13.23,-14.37,-14.29,0,*6F
1484200858.26,10894,5.38,71736.0,-13.23,-14.29,-14.29,0,*67
1484200859.5,10895,5.44,71742.8,-13.21,-14.29,-14.37,0,*6B
1484200860.72,10896,5.44,71740.0,-13.23,-14.37,-14.29,0,*6A
1484200861.96,10897,5.44,71740.0,-13.21,-14.29,-14.23,0,*6C
1484200863.18,10898,5.38,71734.5,-13.23,-14.29,-14.29,0,*6B
1484200864.4,10899,5.38,71734.8,-13.23,-14.23,-14.23,0,*6A
1484200865.63,10900,5.38,71732.0,-13.23,-14.23,-14.23,0,*6B
1484200866.85,10901,5.38,71732.0,-13.23,-14.23,-14.23,0,*6A
1484200868.08,10902,5.44,71732.3,-13.23,-14.15,-14.15,0,*69
1484200869.31,10903,5.38,71730.8,-13.23,-14.15,-14.15,0,*68
1484200870.54,10904,5.38,71726.0,-13.23,-14.23,-14.15,0,*6A
1484200871.79,10905,5.38,71724.0,-13.21,-14.15,-14.15,0,*6C
1484200873.01,10906,5.38,71722.8,-13.23,-14.23,-14.23,0,*6D
1484200874.26,10907,5.38,71724.8,-13.21,-14.15,-14.23,0,*6B
1484200875.49,10908,5.38,71716.8,-13.23,-14.23,-14.23,0,*63
1484200876.72,10909,5.38,71710.8,-13.23,-14.23,-14.23,0,*62
1484200877.96,10910,5.38,71708.0,-13.21,-14.23,-14.23,0,*68
1484200879.21,10911,5.38,71704.5,-13.21,-14.29,-14.23,0,*63
1484200880.42,10912,5.38,71700.8,-13.23,-14.37,-14.29,0,*67
1484200881.69,10913,5.38,71710.8,-13.23,-14.51,-14.43,0,*6A
1484200882.96,10914,5.38,71698.5,-13.23,-14.55,-14.55,0,*6E
1484200884.23,10915,5.38,71686.3,-13.23,-14.51,-14.43,0,*6C
1484200885.5,10916,5.38,71680.8,-13.23,-14.43,-14.51,0,*6F
1484200886.77,10917,5.38,71678.0,-13.23,-14.51,-14.43,0,*6E
1484200888.06,10918,5.38,71680.5,-13.21,-14.55,-14.55,0,*60
1484200889.28,10919,5.38,71688.0,-13.23,-14.65,-14.65,0,*63
1484200890.54,10920,5.38,71684.3,-13.25,-14.75,-14.69,0,*62
1484200891.77,10921,5.38,71666.3,-13.25,-14.69,-14.61,0,*66
1484200893.04,10922,5.38,71636.3,-13.25,-14.55,-14.69,0,*62
1484200894.28,10923,5.38,71652.3,-13.25,-14.61,-14.61,0,*6C
1484200895.54,10924,5.44,71654.5,-13.25,-14.75,-14.69,0,*66
1484200896.79,10925,5.38,71644.5,-13.27,-14.55,-14.61,0,*6F
1484200898.01,10926,5.44,71644.0,-13.27,-14.61,-14.61,0,*6B
1484200899.3,10927,5.38,71642.8,-13.25,-14.75,-14.75,0,*68
1484200900.51,10928,5.44,71644.3,-13.27,-14.69,-14.69,0,*65
1484200901.75,10929,5.44,71648.3,-13.25,-14.61,-14.69,0,*6E
1484200902.98,10930,5.38,71654.8,-13.25,-14.69,-14.61,0,*66
1484200904.22,10931,5.38,71660.0,-13.27,-14.61,-14.55,0,*6A
1484200905.51,10932,5.38,71662.3,-13.27,-14.47,-14.47,0,*6E
1484200906.81,10933,5.44,71668.5,-13.25,-14.43,-14.47,0,*69
1484200908.1,10934,5.38,71668.8,-13.25,-14.43,-14.47,0,*6E
1484200909.39,10935,5.38,71670.8,-13.25,-14.43,-14.43,0,*6B
1484200910.61,10936,5.44,71678.3,-13.27,-14.33,-14.33,0,*6A
1484200911.85,10937,5.38,71678.8,-13.25,-14.33,-14.29,0,*62
1484200913.09,10938,5.44,71684.3,-13.25,-14.33,-14.19,0,*6E
1484200914.33,10939,5.38,71682.5,-13.25,-14.33,-14.19,0,*6F
1484200915.58,10940,5.38,71684.5,-13.25,-14.19,-14.29,0,*6A
1484200916.81,10941,5.38,71686.0,-13.27,-14.19,-14.19,0,*6A
1484200918.05,10942,5.38,71688.3,-13.25,-14.19,-14.19,0,*6B
1484200919.28,10943,5.38,71688.8,-13.27,-14.19,-14.19,0,*68
1484200920.52,10944,5.38,71692.0,-13.25,-14.19,-14.19,0,*6D
1484200921.77,10945,5.38,71692.3,-13.25,-14.19,-14.19,0,*6C
1484200923.01,10946,5.38,71694.0,-13.25,-14.29,-14.19,0,*6C
1484200924.24,10947,5.38,71694.5,-13.27,-14.19,-14.19,0,*6C
1484200925.46,10948,5.38,71694.3,-13.27,-14.19,-14.19,0,*63
1484200926.71,10949,5.38,71692.0,-13.25,-14.19,-14.29,0,*63
1484200927.95,10950,5.38,71696.5,-13.25,-14.29,-14.19,0,*6B
1484200929.19,10951,5.38,71694.3,-13.25,-14.29,-14.19,0,*6A
1484200930.44,10952,5.38,71698.0,-13.25,-14.19,-14.19,0,*6A
1484200931.68,10953,5.38,71698.8,-13.25,-14.29,-14.29,0,*6B
1484200932.92,10954,5.38,71694.0,-13.25,-14.19,-14.19,0,*6C
1484200934.17,10955,5.38,71692.5,-13.25,-14.29,-14.19,0,*6E
1484200935.41,10956,5.38,71690.5,-13.25,-14.19,-14.19,0,*6E
1484200936.66,10957,5.38,71686.5,-13.25,-14.19,-14.19,0,*6F
1484200937.9,10958,5.38,71686.3,-13.25,-14.29,-14.19,0,*63
1484200939.12,10959,5.38,71684.5,-13.27,-14.19,-14.19,0,*63
1484200940.37,10960,5.38,71680.0,-13.25,-14.19,-14.19,0,*6B
1484200941.62,10961,5.44,71686.3,-13.25,-14.19,-14.19,0,*6A
1484200942.86,10962,5.38,71680.8,-13.25,-14.33,-14.29,0,*62
1484200944.1,10963,5.44,71684.8,-13.25,-14.29,-14.19,0,*6B
1484200945.35,10964,5.44,71680.5,-13.25,-14.19,-14.19,0,*6F
1484200946.59,10965,5.38,71680.8,-13.25,-14.19,-14.29,0,*6D
1484200947.84,10966,5.44,71684.5,-13.25,-14.19,-14.19,0,*6D
1484200949.08,10967,5.38,71682.0,-13.25,-14.33,-14.29,0,*67
1484200950.32,10968,5.38,71686.5,-13.25,-14.29,-14.29,0,*63
1484200951.56,10969,5.38,71686.5,-13.25,-14.33,-14.29,0,*69
1484200952.81,10970,5.38,71686.3,-13.25,-14.19,-14.29,0,*69
1484200954.03,10971,5.38,71688.8,-13.27,-14.29,-14.19,0,*6A
1484200955.25,10972,5.38,71692.3,-13.27,-14.29,-14.19,0,*69
1484200956.49,10973,5.44,71694.8,-13.25,-14.33,-14.29,0,*62
1484200957.71,10974,5.44,71700.5,-13.27,-14.29,-14.19,0,*6F
1484200958.95,10975,5.38,71698.5,-13.25,-14.29,-14.29,0,*6F
1484200960.19,10976,5.38,71700.8,-13.25,-14.29,-14.19,0,*6F
1484200961.44,10977,5.38,71704.8,-13.25,-14.19,-14.29,0,*6E
1484200962.69,10978,5.38,71706.5,-13.25,-14.19,-14.19,0,*62
1484200963.91,10979,5.38,71708.3,-13.27,-14.19,-14.19,0,*61
1484200965.16,10980,5.44,71710.8,-13.25,-14.19,-14.15,0,*69
1484200966.39,10981,5.44,71710.8,-13.27,-14.19,-14.15,0,*6A
1484200967.64,10982,5.38,71710.5,-13.25,-14.19,-14.15,0,*6B
1484200968.89,10983,5.38,71716.0,-13.25,-14.19,-14.15,0,*6A
1484200970.11,10984,5.44,71716.3,-13.27,-14.19,-14.11,0,*6B
1484200971.36,10985,5.38,71716.5,-13.25,-14.19,-14.15,0,*6C
1484200972.61,10986,5.38,71722.3,-13.25,-14.19,-14.15,0,*6F
1484200973.84,10987,5.38,71716.8,-13.27,-14.11,-14.15,0,*64
1484200975.09,10988,5.44,71726.5,-13.25,-14.15,-14.15,0,*6D
1484200976.34,10989,5.44,71730.3,-13.25,-14.15,-14.15,0,*6C
1484200977.59,10990,5.38,71724.8,-13.25,-14.29,-14.19,0,*67
1484200978.83,10991,5.38,71730.5,-13.25,-14.29,-14.19,0,*66
1484200980.07,10992,5.38,71724.8,-13.25,-14.29,-14.29,0,*66
1484200981.31,10993,5.38,71730.0,-13.25,-14.19,-14.19,0,*67
1484200982.56,10994,5.38,71732.5,-13.25,-14.19,-14.19,0,*60
1484200983.81,10995,5.38,71732.5,-13.25,-14.19,-14.19,0,*61
1484200985.05,10996,5.38,71734.0,-13.25,-14.19,-14.19,0,*62
1484200986.28,10997,5.38,71730.8,-13.27,-14.19,-14.19,0,*61
1484200987.52,10998,5.38,71734.0,-13.25,-14.19,-14.11,0,*64
1484200988.77,10999,5.38,71734.8,-13.25,-14.15,-14.15,0,*6D
1484200990.02,11000,5.38,71738.3,-13.25,-14.11,-14.15,0,*61
1484200991.26,11001,5.38,71736.8,-13.25,-14.11,-14.11,0,*64
1484200992.51,11002,5.38,71736.5,-13.25,-14.15,-14.11,0,*63
1484200993.75,11003,5.38,71736.3,-13.25,-14.11,-14.11,0,*66
1484200995.03,11004,5.38,71736.5,-13.23,-14.05,-14.05,0,*67
1484200996.27,11005,5.38,71742.3,-13.23,-13.97,-14.11,0,*6F
1484200997.54,11006,5.38,71736.8,-13.23,-14.05,-14.05,0,*65
1484200998.79,11007,5.38,71738.3,-13.23,-14.05,-14.11,0,*61
1484201000.01,11008,5.38,71740.0,-13.23,-14.11,-14.11,0,*6B
1484201001.22,11009,5.44,71740.8,-13.23,-14.11,-14.11,0,*6A
1484201002.44,11010,5.38,71738.0,-13.23,-14.11,-14.11,0,*62
1484201003.71,11011,5.38,71736.0,-13.23,-14.05,-14.05,0,*63
1484201004.96,11012,5.38,71736.8,-13.23,-14.11,-14.05,0,*65
1484201006.18,11013,5.38,71732.0,-13.23,-14.11,-14.11,0,*61
1484201007.45,11014,5.38,71734.3,-13.25,-14.01,-14.15,0,*65
1484201008.7,11015,5.38,71730.8,-13.23,-14.11,-14.05,0,*62
1484201009.92,11016,5.44,71734.5,-13.23,-14.11,-14.11,0,*64
1484201011.14,11017,5.38,71730.0,-13.23,-14.11,-14.11,0,*65
1484201012.35,11018,5.38,71728.8,-13.23,-14.11,-14.11,0,*6A
1484201013.57,11019,5.38,71726.5,-13.23,-14.11,-14.11,0,*6B
1484201014.79,11020,5.38,71732.0,-13.23,-14.15,-14.11,0,*65
1484201016.01,11021,5.38,71736.0,-13.23,-14.15,-14.11,0,*64
1484201017.26,11022,5.44,71750.3,-13.23,-14.11,-14.05,0,*66
1484201018.51,11023,5.38,71750.3,-13.23,-14.11,-14.05,0,*67
1484201019.75,11024,5.38,71752.8,-13.23,-14.05,-14.11,0,*60
1484201020.97,11025,5.38,71748.3,-13.23,-14.11,-14.11,0,*64
1484201022.22,11026,5.38,71734.8,-13.21,-14.15,-14.23,0,*60
1484201023.47,11027,5.44,71736.0,-13.21,-14.15,-14.23,0,*61
1484201024.7,11028,5.38,71736.0,-13.23,-14.23,-14.15,0,*6C
1484201025.92,11029,5.38,71732.0,-13.23,-14.29,-14.23,0,*62
1484201027.18,11030,5.38,71724.8,-13.23,-14.51,-14.43,0,*63
1484201028.45,11031,5.38,71718.5,-13.23,-14.43,-14.43,0,*61
1484201029.71,11032,5.38,71716.5,-13.23,-14.51,-14.43,0,*61
1484201030.98,11033,5.38,71716.8,-13.23,-14.43,-14.43,0,*63
1484201032.27,11034,5.38,71696.8,-13.21,-14.43,-14.51,0,*65
1484201033.54,11035,5.38,71684.5,-13.23,-14.43,-14.51,0,*66
1484201034.81,11036,5.38,71692.3,-13.25,-14.61,-14.55,0,*67
1484201036.08,11037,5.38,71676.8,-13.25,-14.61,-14.47,0,*65
1484201037.34,11038,5.38,71674.3,-13.25,-14.61,-14.55,0,*69
1484201038.61,11039,5.38,71674.5,-13.25,-14.61,-14.55,0,*68
1484201039.9,11040,5.38,71654.8,-13.25,-14.55,-14.55,0,*61
1484201041.12,11041,5.38,71652.8,-13.27,-14.33,-14.33,0,*62
1484201042.41,11042,5.38,71640.0,-13.25,-14.43,-14.43,0,*63
1484201043.7,11043,5.38,71640.0,-13.25,-14.55,-14.43,0,*65
1484201044.94,11044,5.38,71642.5,-13.25,-14.33,-14.33,0,*65
1484201046.21,11045,5.38,71646.5,-13.25,-14.43,-14.33,0,*63
1484201047.45,11046,5.38,71644.5,-13.25,-14.33,-14.33,0,*67
1484201048.74,11047,5.38,71634.8,-13.25,-14.47,-14.43,0,*62
1484201049.96,11048,5.38,71644.3,-13.27,-14.33,-14.33,0,*6B
1484201051.19,11049,5.38,71626.5,-13.27,-14.19,-14.29,0,*69
1484201052.43,11050,5.38,71630.3,-13.25,-14.29,-14.33,0,*6B
1484201053.67,11051,5.38,71634.8,-13.25,-14.33,-14.33,0,*61
1484201054.92,11052,5.38,71634.5,-13.27,-14.43,-14.33,0,*67
1484201056.14,11053,5.38,71650.5,-13.27,-14.33,-14.33,0,*61
1484201057.38,11054,5.38,71652.0,-13.25,-14.33,-14.29,0,*6F
1484201058.62,11055,5.38,71654.0,-13.25,-14.29,-14.19,0,*66
1484201059.86,11056,5.38,71654.8,-13.25,-14.29,-14.19,0,*65
1484201061.1,11057,5.38,71656.3,-13.25,-14.29,-14.19,0,*64
1484201062.35,11058,5.38,71656.5,-13.25,-14.19,-14.19,0,*68
1484201063.57,11059,5.38,71656.3,-13.27,-14.19,-14.19,0,*6B
1484201064.79,11060,5.38,71666.3,-13.27,-14.29,-14.19,0,*62
1484201066.03,11061,5.38,71666.8,-13.25,-14.29,-14.19,0,*61
1484201067.27,11062,5.38,71668.0,-13.25,-14.29,-14.19,0,*62
1484201068.52,11063,5.38,71668.3,-13.25,-14.19,-14.29,0,*63
1484201069.76,11064,5.38,71670.3,-13.25,-14.29,-14.19,0,*64
1484201071.0,11065,5.38,71670.5,-13.25,-14.29,-14.19,0,*65
1484201072.23,11066,5.38,71674.0,-13.27,-14.19,-14.19,0,*67
1484201073.47,11067,5.38,71672.8,-13.25,-14.19,-14.19,0,*64
1484201074.72,11068,5.38,71674.8,-13.25,-14.19,-14.15,0,*67
1484201075.96,11069,5.44,71682.0,-13.25,-14.19,-14.11,0,*62
1484201077.21,11070,5.38,71680.3,-13.25,-14.19,-14.15,0,*6E
1484201078.47,11071,5.38,71680.3,-13.25,-14.15,-14.15,0,*63
1484201079.72,11072,5.38,71682.5,-13.25,-14.15,-14.15,0,*60
1484201080.97,11073,5.38,71680.3,-13.25,-14.15,-14.15,0,*61
1484201082.23,11074,5.38,71684.3,-13.25,-14.15,-14.15,0,*66
1484201083.48,11075,5.38,71682.5,-13.25,-14.15,-14.15,0,*67
1484201084.7,11076,5.38,71680.8,-13.23,-14.11,-14.11,0,*62
1484201085.92,11077,5.38,71686.0,-13.23,-14.15,-14.15,0,*63
1484201087.15,11078,5.38,71684.0,-13.23,-14.15,-14.23,0,*69
1484201088.38,11079,5.38,71686.8,-13.23,-14.23,-14.23,0,*6D
1484201089.61,11080,5.38,71690.3,-13.23,-14.15,-14.15,0,*6B
1484201090.85,11081,5.38,71686.5,-13.25,-14.19,-14.19,0,*6C
1484201092.1,11082,5.38,71688.5,-13.25,-14.19,-14.19,0,*6F
1484201093.35,11083,5.38,71688.5,-13.25,-14.19,-14.15,0,*62
1484201094.59,11084,5.38,71694.5,-13.25,-14.19,-14.19,0,*69
1484201095.84,11085,5.38,71694.5,-13.25,-14.19,-14.19,0,*68
1484201097.09,11086,5.38,71694.5,-13.25,-14.15,-14.19,0,*67
1484201098.33,11087,5.38,71692.5,-13.23,-14.05,-14.11,0,*69
1484201099.55,11088,5.38,71698.5,-13.23,-14.11,-14.11,0,*63
1484201100.79,11089,5.38,71698.3,-13.23,-14.05,-14.11,0,*67
1484201102.01,11090,5.38,71702.3,-13.23,-14.11,-14.11,0,*6A
1484201103.23,11091,5.38,71698.5,-13.23,-14.11,-14.11,0,*6B
1484201104.45,11092,5.44,71700.5,-13.23,-14.11,-14.11,0,*68
1484201105.66,11093,5.38,71698.5,-13.23,-14.11,-14.11,0,*69
1484201106.88,11094,5.38,71702.3,-13.23,-14.11,-14.11,0,*6E
1484201108.1,11095,5.38,71700.8,-13.23,-14.11,-14.11,0,*6F
1484201109.35,11096,5.44,71702.5,-13.25,-14.15,-14.15,0,*6A
1484201110.59,11097,5.38,71706.0,-13.25,-14.29,-14.29,0,*6B
1484201111.82,11098,5.38,71706.8,-13.23,-14.23,-14.15,0,*67
1484201113.05,11099,5.38,71706.5,-13.23,-14.15,-14.15,0,*63
1484201114.28,11100,5.38,71710.3,-13.23,-14.15,-14.15,0,*62
1484201115.5,11101,5.38,71708.8,-13.23,-14.15,-14.23,0,*66
1484201116.75,11102,5.38,71710.0,-13.25,-14.19,-14.19,0,*66
1484201117.97,11103,5.38,71710.0,-13.23,-14.23,-14.15,0,*64
1484201119.2,11104,5.38,71710.5,-13.23,-14.15,-14.15,0,*66
1484201120.43,11105,5.38,71708.3,-13.23,-14.15,-14.15,0,*67
1484201121.66,11106,5.38,71710.8,-13.23,-14.15,-14.15,0,*64
1484201122.89,11107,5.38,71708.3,-13.23,-14.15,-14.15,0,*65
1484201124.12,11108,5.38,71708.0,-13.23,-14.15,-14.15,0,*6A
1484201125.35,11109,5.38,71706.0,-13.23,-14.15,-14.15,0,*6B
1484201126.57,11110,5.38,71706.5,-13.23,-14.15,-14.11,0,*67
1484201127.79,11111,5.38,71706.5,-13.23,-14.23,-14.11,0,*63
1484201129.02,11112,5.38,71700.8,-13.23,-14.15,-14.15,0,*61
1484201130.24,11113,5.38,71700.3,-13.23,-14.23,-14.23,0,*60
1484201131.47,11114,5.38,71704.0,-13.23,-14.15,-14.15,0,*67
1484201132.72,11115,5.38,71704.5,-13.25,-14.19,-14.29,0,*63
1484201133.96,11116,5.38,71704.5,-13.25,-14.19,-14.19,0,*63
1484201135.19,11117,5.38,71706.5,-13.23,-14.23,-14.15,0,*61
1484201136.42,11118,5.38,71704.5,-13.23,-14.15,-14.15,0,*6B
1484201137.64,11119,5.38,71708.3,-13.23,-14.11,-14.15,0,*6E
1484201138.89,11120,5.38,71708.8,-13.25,-14.15,-14.19,0,*6A
1484201140.13,11121,5.38,71710.3,-13.25,-14.29,-14.19,0,*64
1484201141.37,11122,5.38,71704.0,-13.25,-14.33,-14.33,0,*64
1484201142.61,11123,5.38,71708.0,-13.25,-14.29,-14.33,0,*6E
1484201143.85,11124,5.38,71706.3,-13.25,-14.33,-14.29,0,*69
1484201145.1,11125,5.38,71708.3,-13.25,-14.19,-14.19,0,*63
1484201146.35,11126,5.38,71714.3,-13.25,-14.19,-14.19,0,*60
1484201147.59,11127,5.38,71722.3,-13.25,-14.29,-14.29,0,*61
1484201148.83,11128,5.38,71720.8,-13.25,-14.29,-14.29,0,*6E
1484201150.08,11129,5.38,71720.8,-13.25,-14.19,-14.29,0,*6C
1484201151.32,11130,5.38,71720.0,-13.25,-14.29,-14.29,0,*67
1484201152.57,11131,5.38,71724.0,-13.21,-14.23,-14.23,0,*62
1484201153.79,11132,5.38,71726.3,-13.23,-14.23,-14.15,0,*66
1484201155.02,11133,5.38,71732.3,-13.23,-14.23,-14.23,0,*62
1484201156.25,11134,5.38,71734.0,-13.23,-14.15,-14.15,0,*65
1484201157.47,11135,5.38,71738.3,-13.23,-14.15,-14.15,0,*64
1484201158.7,11136,5.38,71734.0,-13.23,-14.15,-14.15,0,*67
1484201159.93,11137,5.38,71734.5,-13.23,-14.15,-14.15,0,*66
1484201161.16,11138,5.38,71738.0,-13.23,-14.11,-14.15,0,*6D
1484201162.38,11139,5.38,71744.3,-13.23,-14.11,-14.15,0,*6C
1484201163.61,11140,5.38,71744.8,-13.23,-14.15,-14.15,0,*66
1484201164.86,11141,5.38,71746.0,-13.25,-14.19,-14.15,0,*6D
1484201166.13,11142,5.38,71748.5,-13.21,-14.11,-14.05,0,*63
1484201167.35,11143,5.38,71748.3,-13.23,-14.11,-14.15,0,*61
1484201168.58,11144,5.38,71746.5,-13.23,-14.15,-14.23,0,*67
1484201169.81,11145,5.38,71750.8,-13.23,-14.15,-14.15,0,*63
1484201171.04,11146,5.38,71752.3,-13.23,-14.15,-14.15,0,*60
1484201172.29,11147,5.38,71754.3,-13.25,-14.19,-14.15,0,*6B
1484201173.51,11148,5.38,71752.8,-13.23,-14.15,-14.11,0,*6A
1484201174.76,11149,5.38,71754.3,-13.23,-14.11,-14.05,0,*6A
1484201175.98,11150,5.38,71756.3,-13.23,-14.11,-14.23,0,*66
1484201177.2,11151,5.38,71758.5,-13.23,-14.11,-14.15,0,*62
1484201178.43,11152,5.38,71758.8,-13.23,-14.23,-14.15,0,*60
1484201179.65,11153,5.38,71760.0,-13.23,-14.23,-14.15,0,*61
1484201180.9,11154,5.38,71760.3,-13.25,-14.19,-14.19,0,*65
1484201182.15,11155,5.38,71756.8,-13.25,-14.19,-14.19,0,*64
1484201183.39,11156,5.38,71764.5,-13.25,-14.29,-14.19,0,*64
1484201184.61,11157,5.38,71764.8,-13.23,-14.23,-14.15,0,*65
1484201185.84,11158,5.38,71764.3,-13.23,-14.23,-14.15,0,*6A
1484201187.06,11159,5.38,71762.5,-13.23,-14.23,-14.23,0,*6E
1484201188.29,11160,5.38,71768.0,-13.23,-14.15,-14.23,0,*61
1484201189.52,11161,5.38,71768.3,-13.23,-14.15,-14.15,0,*65
1484201190.74,11162,5.38,71764.8,-13.23,-14.23,-14.15,0,*63
1484201191.99,11163,5.38,71766.8,-13.21,-14.23,-14.29,0,*6F
1484201193.22,11164,5.38,71762.8,-13.23,-14.15,-14.15,0,*60
1484201194.44,11165,5.38,71764.0,-13.23,-14.23,-14.15,0,*64
1484201195.67,11166,5.38,71766.3,-13.23,-14.15,-14.29,0,*6D
1484201196.9,11167,5.38,71760.8,-13.23,-14.23,-14.29,0,*69
1484201198.12,11168,5.38,71762.8,-13.23,-14.23,-14.29,0,*66
1484201199.36,11169,5.38,71758.8,-13.25,-14.29,-14.29,0,*6B
1484201200.58,11170,5.38,71760.0,-13.23,-14.23,-14.29,0,*6F
1484201201.81,11171,5.38,71758.0,-13.23,-14.23,-14.37,0,*61
1484201203.02,11172,5.38,71754.0,-13.23,-14.29,-14.29,0,*67
1484201204.24,11173,5.38,71746.5,-13.23,-14.29,-14.37,0,*69
1484201205.54,11174,5.38,71752.5,-13.25,-14.47,-14.43,0,*63
1484201206.83,11175,5.38,71752.3,-13.25,-14.55,-14.47,0,*65
1484201208.14,11176,5.38,71748.0,-13.25,-14.47,-14.47,0,*65
1484201209.44,11177,5.38,71742.5,-13.25,-14.55,-14.47,0,*67
1484201210.74,11178,5.38,71742.5,-13.25,-14.47,-14.47,0,*6B
1484201211.98,11179,5.38,71736.3,-13.25,-14.33,-14.33,0,*6A
1484201213.27,11180,5.38,71722.8,-13.25,-14.43,-14.43,0,*6C
1484201214.51,11181,5.38,71720.5,-13.25,-14.29,-14.29,0,*6D
1484201215.76,11182,5.38,71718.5,-13.25,-14.29,-14.29,0,*6E
1484201217.02,11183,5.38,71714.0,-13.25,-14.43,-14.29,0,*63
1484201218.24,11184,5.38,71710.0,-13.27,-14.29,-14.33,0,*61
1484201219.49,11185,5.38,71708.8,-13.25,-14.29,-14.29,0,*69
1484201220.7,11186,5.38,71706.5,-13.27,-14.29,-14.19,0,*6B
1484201221.93,11187,5.38,71706.5,-13.27,-14.19,-14.19,0,*69
1484201223.18,11188,5.38,71704.3,-13.25,-14.19,-14.19,0,*64
1484201224.42,11189,5.38,71710.8,-13.25,-14.19,-14.29,0,*66
1484201225.67,11190,5.38,71704.3,-13.25,-14.29,-14.29,0,*6D
1484201226.91,11191,5.38,71708.5,-13.25,-14.29,-14.19,0,*6F
1484201228.15,11192,5.38,71708.0,-13.25,-14.19,-14.19,0,*6F
1484201229.39,11193,5.38,71708.8,-13.25,-14.29,-14.19,0,*6D
1484201230.63,11194,5.38,71708.0,-13.25,-14.29,-14.33,0,*62
1484201231.88,11195,5.38,71710.3,-13.25,-14.29,-14.29,0,*68
1484201233.12,11196,5.38,71714.5,-13.25,-14.29,-14.29,0,*6B
1484201234.39,11197,5.38,71708.5,-13.25,-14.43,-14.29,0,*66
1484201235.65,11198,5.38,71712.0,-13.25,-14.43,-14.33,0,*62
1484201236.93,11199,5.38,71706.8,-13.25,-14.47,-14.33,0,*67
1484201238.2,11200,5.38,71696.0,-13.25,-14.43,-14.33,0,*60
1484201239.44,11201,5.38,71698.5,-13.25,-14.33,-14.33,0,*66
1484201240.68,11202,5.38,71696.3,-13.25,-14.19,-14.29,0,*66
1484201241.92,11203,5.38,71698.3,-13.25,-14.29,-14.19,0,*67
1484201243.15,11204,5.38,71694.8,-13.23,-14.23,-14.15,0,*60
1484201244.37,11205,5.38,71692.8,-13.23,-14.23,-14.23,0,*64
1484201245.66,11206,5.38,71690.8,-13.25,-14.43,-14.43,0,*61
1484201246.9,11207,5.38,71692.0,-13.25,-14.33,-14.33,0,*60
1484201248.14,11208,5.38,71696.8,-13.25,-14.29,-14.19,0,*6C
1484201249.38,11209,5.38,71692.3,-13.25,-14.29,-14.29,0,*6E
1484201250.63,11210,5.38,71702.0,-13.25,-14.29,-14.19,0,*65
1484201251.87,11211,5.38,71698.3,-13.25,-14.19,-14.29,0,*64
1484201253.11,11212,5.38,71698.5,-13.25,-14.29,-14.29,0,*64
1484201254.36,11213,5.38,71694.3,-13.25,-14.29,-14.29,0,*65
1484201255.58,11214,5.38,71694.8,-13.23,-14.23,-14.15,0,*61
1484201256.82,11215,5.38,71692.3,-13.25,-14.29,-14.29,0,*63
1484201258.06,11216,5.38,71692.8,-13.25,-14.29,-14.29,0,*60
1484201259.29,11217,5.38,71690.0,-13.23,-14.19,-14.19,0,*67
1484201260.53,11218,5.38,71692.5,-13.25,-14.29,-14.29,0,*6E
1484201261.77,11219,5.38,71688.3,-13.25,-14.29,-14.29,0,*6F
1484201262.99,11220,5.38,71688.5,-13.23,-14.23,-14.23,0,*63
1484201264.22,11221,5.38,71688.0,-13.23,-14.23,-14.15,0,*67
1484201265.45,11222,5.38,71688.3,-13.23,-14.15,-14.15,0,*61
1484201266.68,11223,5.38,71688.8,-13.23,-14.15,-14.15,0,*60
1484201267.9,11224,5.38,71686.0,-13.23,-14.23,-14.15,0,*62
1484201269.13,11225,5.38,71690.8,-13.23,-14.15,-14.15,0,*66
1484201270.36,11226,5.38,71690.5,-13.23,-14.15,-14.15,0,*65
1484201271.59,11227,5.38,71690.8,-13.23,-14.15,-14.15,0,*64
1484201272.82,11228,5.38,71688.0,-13.23,-14.15,-14.15,0,*6B
1484201274.04,11229,5.38,71688.0,-13.23,-14.23,-14.15,0,*6F
1484201275.27,11230,5.38,71690.0,-13.23,-14.23,-14.15,0,*67
1484201276.5,11231,5.38,71694.5,-13.23,-14.15,-14.15,0,*63
1484201277.74,11232,5.38,71692.3,-13.21,-14.37,-14.37,0,*62
1484201279.0,11233,5.38,71694.5,-13.23,-14.43,-14.43,0,*61
1484201280.24,11234,5.38,71692.5,-13.23,-14.37,-14.43,0,*65
1484201281.47,11235,5.38,71694.8,-13.23,-14.23,-14.15,0,*62
1484201282.7,11236,5.38,71694.5,-13.23,-14.15,-14.15,0,*64
1484201283.92,11237,5.38,71696.0,-13.23,-14.15,-14.15,0,*65
1484201285.15,11238,5.38,71698.8,-13.23,-14.15,-14.23,0,*6F
1484201286.4,11239,5.38,71692.0,-13.25,-14.19,-14.19,0,*6D
1484201287.64,11240,5.38,71692.8,-13.25,-14.29,-14.19,0,*60
1484201288.88,11241,5.38,71692.5,-13.25,-14.33,-14.29,0,*69
1484201290.1,11242,5.38,71696.5,-13.23,-14.29,-14.23,0,*6D
1484201291.32,11243,5.38,71694.3,-13.23,-14.37,-14.29,0,*69
1484201292.54,11244,5.38,71698.0,-13.23,-14.23,-14.29,0,*6B
1484201293.77,11245,5.38,71698.5,-13.23,-14.15,-14.23,0,*65
1484201294.99,11246,5.38,71698.3,-13.23,-14.29,-14.23,0,*69